Faro, Portugal

9:43 AM WET on November 22, 2019 (GMT +0000)
Faro

Weather History for LPFR - September, 2019

Change the Weather History Date:

Tuesday, September 3, 2019

  Actual Average Record
Temperature  
Mean Temperature 78 °F -  
Max Temperature 86 °F 76 °F 91 °F (2016)
Min Temperature 71 °F 62 °F 60 °F (2000)
Cooling Degree Days 14    
Growing Degree Days 28 (Base 50)    
Moisture  
Dew Point 65 °F    
Average Humidity 62    
Maximum Humidity 94    
Minimum Humidity 38    
Precipitation  
Precipitation 0.00 in 0.03 in - ()
Sea Level Pressure  
Sea Level Pressure 30.05 in    
Wind  
Wind Speed 6 mph ()    
Max Wind Speed 18 mph    
Max Gust Speed -    
Visibility 10.7 miles    
Events      
Averages and records for this station are not official NWS values.
T = Trace of Precipitation, MM = Missing Value Source: Averaged Metar Reports

Daily Weather History Graph

Daily Weather History Graph

Search for Another Location

Airport or City:

Astronomy

Sep. 03, 2019 Rise Set
Actual Time 7:03 AM WEST 7:58 PM WEST
Civil Twilight 6:37 AM WEST 8:24 PM WEST
Nautical Twilight 6:06 AM WEST 8:55 PM WEST
Astronomical Twilight 5:33 AM WEST 9:28 PM WEST
Moon 11:34 AM WEST (9/3) 10:53 PM WEST (9/3)
Length of Visible Light 13h 47m
Length of Day
12h 54m
Waxing Crescent, 22% of the Moon is Illuminated
Sep 3
Waxing Crescent
Sep 6
First Quarter
Sep 14
Full
Sep 22
Last Quarter
Sep 28
New

Hourly Weather History & Observations

Time (WEST) Temp. Heat Index Dew Point Humidity Pressure Visibility Wind Dir Wind Speed Gust Speed Precip Events Conditions
12:00 AM 74 °F - 71 °F 87% 30.03 in - Calm Calm - -  
12:00 AM 73.4 °F - 71.6 °F 94% 30.01 in - Calm Calm - N/A   Clear
12:30 AM 73.4 °F - 68.0 °F 83% 30.01 in - Variable 1.2 mph - N/A   Clear
1:00 AM 73 °F - 62 °F 61% 30.04 in 16 mi North 2.2 mph - -   Scattered Clouds
1:00 AM 73.4 °F - 60.8 °F 65% 30.01 in - NNE 5.8 mph - N/A   Clear
1:30 AM 69.8 °F - 60.8 °F 73% 30.01 in - ENE 3.5 mph - N/A   Clear
2:00 AM 76 °F - 59 °F 45% 30.04 in - NE 2.2 mph - -  
2:00 AM 73.4 °F - 60.8 °F 65% 30.01 in - NE 4.6 mph - N/A   Clear
2:30 AM 73.4 °F - 57.2 °F 57% 30.01 in - NE 5.8 mph - N/A   Clear
3:00 AM 73.4 °F - 57.2 °F 57% 30.01 in - NNE 5.8 mph - N/A   Clear
3:30 AM 73.4 °F - 57.2 °F 57% 30.01 in - NNE 5.8 mph - N/A   Clear
4:00 AM 75 °F - 57 °F 44% 30.03 in 16 mi NNE 2.2 mph - -   Clear
4:00 AM 69.8 °F - 57.2 °F 64% 30.01 in - Variable 2.3 mph - N/A   Clear
4:30 AM 69.8 °F - 57.2 °F 64% 30.01 in - North 4.6 mph - N/A   Clear
5:00 AM 73.4 °F - 59.0 °F 61% 30.01 in - NNE 5.8 mph - N/A   Clear
5:30 AM 71.6 °F - 59.0 °F 64% 30.01 in - NNE 5.8 mph - N/A   Clear
6:00 AM 74 °F - 60 °F 52% 30.04 in - North 2.2 mph - -  
6:00 AM 69.8 °F - 59.0 °F 68% 30.01 in - NNE 6.9 mph - N/A   Clear
6:30 AM 73.4 °F - 59.0 °F 61% 30.01 in - NNE 9.2 mph - N/A   Clear
7:00 AM 73 °F - 58 °F 50% 30.05 in 16 mi North 6.7 mph - -   Clear
7:00 AM 73.4 °F - 59.0 °F 61% 30.01 in - NNE 6.9 mph - N/A   Clear
7:30 AM 73.4 °F - 64.4 °F 73% 30.04 in - East 6.9 mph - N/A   Clear
8:00 AM 76 °F - 58 °F 44% 30.07 in - ENE 2.2 mph - -  
8:00 AM 75.2 °F - 57.2 °F 53% 30.04 in - NNE 4.6 mph - N/A   Clear
8:30 AM 75.2 °F - 59.0 °F 57% 30.04 in - East 6.9 mph - N/A   Clear
9:00 AM 79 °F - 58 °F 38% 30.08 in - East 11.2 mph - -  
9:00 AM 78.8 °F - 59.0 °F 51% 30.06 in - East 8.1 mph - N/A   Clear
9:30 AM 80.6 °F 81.1 °F 59.0 °F 48% 30.06 in - East 9.2 mph - N/A   Clear
10:00 AM 81 °F - 67 °F 53% 30.09 in 12 mi East 15.7 mph - -   Clear
10:00 AM 80.6 °F 82.3 °F 64.4 °F 58% 30.06 in - East 12.7 mph - N/A   Clear
10:30 AM 80.6 °F 83.2 °F 68.0 °F 65% 30.06 in - East 15.0 mph - N/A   Clear
11:00 AM 82 °F - 69 °F 55% 30.11 in - East 15.7 mph - -  
11:00 AM 82.4 °F 85.4 °F 68.0 °F 62% 30.09 in - East 15.0 mph - N/A   Clear
11:30 AM 82.4 °F 85.4 °F 68.0 °F 62% 30.09 in - East 15.0 mph - N/A   Clear
12:00 PM 82.4 °F 85.4 °F 68.0 °F 62% 30.09 in - East 15.0 mph - N/A   Clear
12:30 PM 84.2 °F 87.3 °F 68.0 °F 58% 30.09 in - East 15.0 mph - N/A   Clear
1:00 PM 86 °F - 70 °F 50% 30.10 in 12 mi ESE 9.2 mph - -   Clear
1:00 PM 84.2 °F 87.3 °F 68.0 °F 58% 30.06 in - East 18.4 mph - N/A   Clear
1:30 PM 84.2 °F 87.3 °F 68.0 °F 58% 30.06 in - East 13.8 mph - N/A   Clear
2:00 PM 85 °F - 69 °F 50% 30.09 in - ESE 15.7 mph - -  
2:00 PM 82.4 °F 85.4 °F 68.0 °F 62% 30.06 in - ESE 13.8 mph - N/A   Clear
2:30 PM 82.4 °F 85.4 °F 68.0 °F 62% 30.06 in - ESE 15.0 mph - N/A   Clear
3:00 PM 86 °F - 68 °F 46% 30.09 in - ESE 13.4 mph - -  
3:00 PM 84.2 °F 87.3 °F 68.0 °F 58% 30.06 in - ESE 13.8 mph - N/A   Clear
3:30 PM 84.2 °F 87.3 °F 68.0 °F 58% 30.06 in - ESE 11.5 mph - N/A   Clear
4:00 PM 85 °F - 69 °F 50% 30.07 in 12 mi ESE 8.9 mph - -   Scattered Clouds
4:00 PM 84.2 °F 87.3 °F 68.0 °F 58% 30.04 in 6.2 mi ESE 10.4 mph - N/A   Partly Cloudy
4:30 PM 84.2 °F 87.3 °F 68.0 °F 58% 30.04 in 6.2 mi ESE 10.4 mph - N/A   Partly Cloudy
5:30 PM 82.4 °F 85.4 °F 68.0 °F 62% 30.04 in 6.2 mi SE 8.1 mph - N/A   Partly Cloudy
6:00 PM 80.6 °F 83.9 °F 69.8 °F 70% 30.04 in 6.2 mi SE 6.9 mph - N/A   Partly Cloudy
6:30 PM 80.6 °F 83.9 °F 69.8 °F 70% 30.04 in 6.2 mi SE 5.8 mph - N/A   Partly Cloudy
7:00 PM 81 °F - 69 °F 60% 30.06 in 12 mi ESE 4.5 mph - -   Scattered Clouds
7:00 PM 80.6 °F 83.9 °F 69.8 °F 70% 30.04 in - ESE 5.8 mph - N/A   Clear
7:30 PM 78.8 °F - 69.8 °F 74% 30.04 in - SE 4.6 mph - N/A   Clear
8:00 PM 78.8 °F - 69.8 °F 74% 30.04 in - East 4.6 mph - N/A   Clear
8:30 PM 78.8 °F - 68.0 °F 69% 30.04 in - East 4.6 mph - N/A   Clear
9:00 PM 79 °F - 68 °F 62% 30.09 in - North 4.5 mph - -  
9:00 PM 78.8 °F - 68.0 °F 69% 30.06 in - North 4.6 mph - N/A   Clear
9:30 PM 78.8 °F - 68.0 °F 69% 30.06 in - NNE 3.5 mph - N/A   Clear
10:00 PM 78 °F - 68 °F 64% 30.09 in 12 mi Calm Calm - -   Clear
10:00 PM 78.8 °F - 68.0 °F 69% 30.06 in - Variable 1.2 mph - N/A   Clear
10:30 PM 77.0 °F - 69.8 °F 78% 30.06 in - South 2.3 mph - N/A   Clear
11:00 PM 77.0 °F - 68.0 °F 74% 30.06 in - Variable 1.2 mph - N/A   Clear
11:30 PM 75.2 °F - 68.0 °F 78% 30.06 in - Calm Calm - N/A   Clear